Weather History for Thomasville, GA

Change the Weather History Date:

Saturday, May 25, 2013

  Actual Average (KVLD) Record (KVLD)
Temperature  
Mean Temperature 72 °F 76 °F  
Max Temperature 86 °F 88 °F 98 °F (2011)
Min Temperature 57 °F 64 °F 55 °F (2001)
Cooling Degree Days 6 11  
Month to date cooling degree days 208  
Year to date cooling degree days 343  
Growing Degree Days 22 (Base 50)    
Moisture  
Dew Point 51 °F    
Average Humidity 53    
Maximum Humidity 83    
Minimum Humidity 25    
Precipitation  
Precipitation 0.00 in 0.10 in 0.86 in (1997)
Month to date precipitation 1.70  
Year to date precipitation 18.17  
Sea Level Pressure  
Sea Level Pressure 30.21 in    
Wind  
Wind Speed 4 mph (NE)    
Max Wind Speed 12 mph    
Max Gust Speed -    
Visibility 10 miles    
Events      
T = Trace of Precipitation, MM = Missing Value Source: NWS Daily Summary

Daily Weather History Graph

Daily Weather History Graph

Search for Another Location

Airport:

Trip Planner

Search our weather history database for the weather conditions in past years. The results will help you decide how hot, cold, wet, or windy it might be!

Date:

Astronomy

May. 25, 2013 Rise Set
Actual Time 6:35 AM EDT 8:30 PM EDT
Civil Twilight 6:07 AM EDT 8:57 PM EDT
Nautical Twilight 5:35 AM EDT 9:30 PM EDT
Astronomical Twilight 5:00 AM EDT 10:05 PM EDT
Moon 9:18 PM EDT (5/25) 6:59 AM EDT (5/25)
Length of Visible Light 14h 49m
Length of Day
13h 55m
Full, 100% of the Moon is Illuminated
May 25
Full
May 31
Last Quarter
Jun 8
New
Jun 16
First Quarter
Jun 23
Full

Hourly Weather History & Observations

Time (EDT) Temp. Dew Point Humidity Pressure Visibility Wind Dir Wind Speed Gust Speed Precip Events Conditions
12:15 AM 68.0 °F 50.0 °F 52% 30.18 in 10.0 mi North 4.6 mph - N/A   Clear
12:35 AM 68.0 °F 50.0 °F 52% 30.18 in 10.0 mi North 3.5 mph - N/A   Clear
12:55 AM 66.2 °F 50.0 °F 56% 30.17 in 10.0 mi North 4.6 mph - N/A   Clear
1:15 AM 64.4 °F 50.0 °F 59% 30.17 in 10.0 mi NNE 3.5 mph - N/A   Clear
1:35 AM 64.4 °F 50.0 °F 59% 30.17 in 10.0 mi North 3.5 mph - N/A   Clear
1:55 AM 62.6 °F 51.8 °F 68% 30.17 in 10.0 mi Calm Calm - N/A   Clear
2:15 AM 62.6 °F 51.8 °F 68% 30.16 in 10.0 mi Calm Calm - N/A   Clear
2:35 AM 60.8 °F 53.6 °F 77% 30.16 in 10.0 mi Calm Calm - N/A   Clear
2:55 AM 60.8 °F 53.6 °F 77% 30.16 in 10.0 mi Calm Calm - N/A   Clear
3:15 AM 59.0 °F 53.6 °F 82% 30.16 in 10.0 mi North 4.6 mph - N/A   Clear
3:35 AM 60.8 °F 51.8 °F 72% 30.16 in 10.0 mi North 3.5 mph - N/A   Clear
3:55 AM 60.8 °F 51.8 °F 72% 30.16 in 10.0 mi North 3.5 mph - N/A   Clear
4:15 AM 60.8 °F 51.8 °F 72% 30.16 in 10.0 mi North 4.6 mph - N/A   Clear
4:35 AM 59.0 °F 51.8 °F 77% 30.17 in 10.0 mi NNE 3.5 mph - N/A   Clear
4:55 AM 60.8 °F 51.8 °F 72% 30.17 in 10.0 mi Calm Calm - N/A   Clear
5:15 AM 59.0 °F 51.8 °F 77% 30.17 in 10.0 mi Calm Calm - N/A   Clear
5:35 AM 57.2 °F 51.8 °F 82% 30.18 in 10.0 mi North 3.5 mph - N/A   Clear
5:55 AM 57.2 °F 51.8 °F 82% 30.19 in 10.0 mi North 3.5 mph - N/A   Clear
6:15 AM 57.2 °F 51.8 °F 82% 30.19 in 10.0 mi Calm Calm - N/A   Clear
6:35 AM 57.2 °F 51.8 °F 82% 30.20 in 10.0 mi NNE 4.6 mph - N/A   Clear
6:55 AM 59.0 °F 51.8 °F 77% 30.21 in 10.0 mi NNE 4.6 mph - N/A   Clear
7:15 AM 59.0 °F 51.8 °F 77% 30.22 in 10.0 mi NNE 4.6 mph - N/A   Clear
7:35 AM 60.8 °F 51.8 °F 72% 30.23 in 10.0 mi NNE 5.8 mph - N/A   Clear
7:55 AM 62.6 °F 51.8 °F 68% 30.24 in 10.0 mi NE 5.8 mph - N/A   Clear
8:15 AM 64.4 °F 51.8 °F 64% 30.25 in 10.0 mi ENE 6.9 mph - N/A   Clear
8:35 AM 66.2 °F 51.8 °F 60% 30.25 in 10.0 mi ENE 9.2 mph - N/A   Clear
8:55 AM 68.0 °F 50.0 °F 52% 30.26 in 10.0 mi ENE 6.9 mph - N/A   Clear
9:15 AM 69.8 °F 50.0 °F 49% 30.26 in 10.0 mi ENE 6.9 mph - N/A   Clear
9:35 AM 69.8 °F 50.0 °F 49% 30.27 in 10.0 mi East 8.1 mph - N/A   Clear
9:55 AM 71.6 °F 51.8 °F 50% 30.27 in 10.0 mi ESE 8.1 mph - N/A   Clear
10:15 AM 71.6 °F 51.8 °F 50% 30.28 in 10.0 mi East 9.2 mph - N/A   Clear
10:35 AM 73.4 °F 51.8 °F 47% 30.28 in 10.0 mi ENE 8.1 mph - N/A   Clear
10:55 AM 73.4 °F 51.8 °F 47% 30.28 in 10.0 mi East 6.9 mph - N/A   Clear
11:15 AM 75.2 °F 51.8 °F 44% 30.28 in 10.0 mi East 8.1 mph - N/A   Clear
11:35 AM 77.0 °F 50.0 °F 39% 30.29 in 10.0 mi East 6.9 mph - N/A   Clear
11:55 AM 77.0 °F 50.0 °F 39% 30.28 in 10.0 mi ENE 10.4 mph - N/A   Clear
12:15 PM 77.0 °F 50.0 °F 39% 30.28 in 10.0 mi East 9.2 mph - N/A   Clear
12:35 PM 78.8 °F 50.0 °F 36% 30.27 in 10.0 mi East 11.5 mph - N/A   Clear
12:55 PM 78.8 °F 48.2 °F 34% 30.27 in 10.0 mi ESE 10.4 mph - N/A   Clear
1:15 PM 80.6 °F 46.4 °F 30% 30.26 in 10.0 mi SE 4.6 mph - N/A   Clear
1:35 PM 80.6 °F 48.2 °F 32% 30.25 in 10.0 mi SSE 6.9 mph - N/A   Clear
1:55 PM 80.6 °F 48.2 °F 32% 30.24 in 10.0 mi SSE 9.2 mph - N/A   Clear
2:15 PM 80.6 °F 46.4 °F 30% 30.23 in 10.0 mi SSW 3.5 mph - N/A   Clear
2:35 PM 82.4 °F 46.4 °F 28% 30.22 in 10.0 mi Calm Calm - N/A   Clear
2:55 PM 82.4 °F 46.4 °F 28% 30.22 in 10.0 mi East 5.8 mph - N/A   Clear
3:15 PM 82.4 °F 44.6 °F 26% 30.21 in 10.0 mi NE 5.8 mph - N/A   Clear
3:35 PM 82.4 °F 44.6 °F 26% 30.20 in 10.0 mi Calm Calm - N/A   Clear
3:55 PM 82.4 °F 46.4 °F 28% 30.19 in 10.0 mi East 8.1 mph - N/A   Clear
4:15 PM 84.2 °F 46.4 °F 27% 30.19 in 10.0 mi NNE 4.6 mph - N/A   Clear
4:35 PM 82.4 °F 46.4 °F 28% 30.18 in 10.0 mi East 3.5 mph - N/A   Clear
4:55 PM 82.4 °F 46.4 °F 28% 30.18 in 10.0 mi Calm Calm - N/A   Clear
5:15 PM 84.2 °F 48.2 °F 29% 30.18 in 10.0 mi ENE 5.8 mph - N/A   Clear
5:35 PM 86.0 °F 46.4 °F 25% 30.18 in 10.0 mi Calm Calm - N/A   Clear
5:55 PM 82.4 °F 46.4 °F 28% 30.18 in 10.0 mi Calm Calm - N/A   Clear
6:15 PM 82.4 °F 48.2 °F 30% 30.18 in 10.0 mi ENE 4.6 mph - N/A   Clear
6:35 PM 82.4 °F 48.2 °F 30% 30.18 in 10.0 mi ENE 5.8 mph - N/A   Clear
6:55 PM 82.4 °F 48.2 °F 30% 30.19 in 10.0 mi NE 8.1 mph - N/A   Clear
7:15 PM 80.6 °F 48.2 °F 32% 30.19 in 10.0 mi NNE 5.8 mph - N/A   Clear
7:35 PM 78.8 °F 50.0 °F 36% 30.19 in 10.0 mi NE 4.6 mph - N/A   Clear
7:55 PM 77.0 °F 53.6 °F 44% 30.19 in 10.0 mi NNE 3.5 mph - N/A   Clear
8:15 PM 77.0 °F 53.6 °F 44% 30.19 in 10.0 mi NE 3.5 mph - N/A   Clear
8:35 PM 73.4 °F 55.4 °F 53% 30.19 in 10.0 mi Calm Calm - N/A   Clear
8:55 PM 71.6 °F 55.4 °F 57% 30.19 in 10.0 mi Calm Calm - N/A   Clear
9:15 PM 71.6 °F 55.4 °F 57% 30.19 in 10.0 mi Calm Calm - N/A   Clear
9:35 PM 69.8 °F 57.2 °F 64% 30.19 in 10.0 mi Calm Calm - N/A   Clear
9:55 PM 69.8 °F 59.0 °F 68% 30.19 in 10.0 mi Calm Calm - N/A   Clear
10:15 PM 69.8 °F 57.2 °F 64% 30.20 in 10.0 mi Calm Calm - N/A   Clear
10:35 PM 68.0 °F 59.0 °F 73% 30.20 in 10.0 mi Calm Calm - N/A   Clear
10:55 PM 68.0 °F 57.2 °F 68% 30.21 in 10.0 mi Calm Calm - N/A   Clear
11:15 PM 68.0 °F 57.2 °F 68% 30.21 in 10.0 mi Calm Calm - N/A   Clear
11:35 PM 64.4 °F 59.0 °F 83% 30.21 in 10.0 mi Calm Calm - N/A   Clear
11:55 PM 64.4 °F 55.4 °F 73% 30.21 in 10.0 mi Calm Calm - N/A   Clear